GW3608 Weather Reports


Display with metric or nautical units.
time (UTC)temp
F
wind
direction
speed
MPH
gust
MPH
rain 1hr
in
rain 24hr
in
rain mn
in
humidity
%
barometer
mb
20260503004516 41 30 0.0 4.0 0.00 0.09 0.02 60 1013.4
20260503003013 41 336 0.0 3.0 0.00 0.10 0.02 59 1013.3
20260503001513 41 352 0.0 4.0 0.00 0.10 0.02 59 1013.2
20260503000018 42 342 0.0 4.0 0.00 0.11 0.02 58 1013.3
20260502234514 42 348 0.0 6.0 0.00 0.12 0.02 59 1013.2
20260502233020 43 292 0.0 4.0 0.00 0.13 0.02 56 1013.0
20260502231516 43 17 0.0 3.0 0.00 0.15 0.02 57 1012.9
20260502230017 43 294 1.0 4.0 0.00 0.16 0.02 57 1012.8
20260502224517 43 309 0.0 3.0 0.00 0.16 0.02 59 1012.6
20260502223018 43 291 0.0 3.0 0.00 0.16 0.02 58 1012.6
20260502221518 43 341 0.0 3.0 0.00 0.16 0.02 59 1012.7
20260502220018 43 19 0.0 4.0 0.00 0.16 0.02 59 1012.8
20260502214534 44 281 1.0 5.0 0.00 0.16 0.02 56 1012.7
20260502213027 44 289 1.0 4.0 0.00 0.16 0.02 56 1012.5
20260502211526 44 252 0.0 3.0 0.00 0.16 0.02 56 1012.5
20260502210028 44 299 1.0 9.0 0.00 0.16 0.02 54 1012.4
20260502204520 44 344 0.0 5.0 0.00 0.16 0.02 53 1012.6
20260502203022 44 334 1.0 5.0 0.00 0.16 0.02 53 1012.6
20260502201523 45 15 1.0 5.0 0.00 0.16 0.02 51 1012.6
20260502200021 45 300 0.0 7.0 0.00 0.16 0.02 51 1012.9
20260502194508 45 257 1.0 4.0 0.00 0.16 0.02 50 1013.0
20260502193012 45 318 0.0 5.0 0.00 0.16 0.02 49 1013.1
20260502191517 46 256 1.0 6.0 0.00 0.16 0.02 46 1013.3
20260502190030 46 280 0.0 6.0 0.00 0.16 0.02 51 1013.2
20260502184509 46 149 1.0 8.0 0.00 0.16 0.02 48 1013.4
20260502183011 46 267 1.0 5.0 0.00 0.16 0.02 48 1013.4
20260502181514 46 309 0.0 4.0 0.00 0.16 0.02 53 1013.4
20260502163030 46 20 2.0 5.0 0.00 0.16 0.02 46 1013.4
20260502161508 46 86 2.0 10.0 0.00 0.16 0.02 45 1013.5
20260502151527 46 32 1.0 4.0 0.00 0.16 0.02 53 1013.6
20260502123019 40 285 1.0 8.0 0.00 0.16 0.02 80 1013.9
20260502121520 39 35 0.0 5.0 0.00 0.16 0.02 84 1013.7
20260502114531 40 69 2.0 6.0 0.00 0.16 0.02 86 1013.6
20260502113029 39 347 0.0 7.0 0.00 0.16 0.02 88 1013.8
20260502111518 38 360 0.0 4.0 0.00 0.16 0.02 91 1013.6
20260502110022 38 346 0.0 3.0 0.00 0.16 0.02 91 1013.4
20260502104505 38 352 0.0 2.0 0.00 0.16 0.02 91 1013.4
20260502103008 38 348 0.0 2.0 0.00 0.16 0.02 91 1013.2
20260502101503 38 324 0.0 3.0 0.00 0.16 0.02 91 1013.2
20260502091512 38 5 0.0 0.0 0.00 0.16 0.02 92 1012.8
20260502071506 38 5 0.0 3.0 0.00 0.16 0.02 92 1012.3
20260502070012 38 9 0.0 4.0 0.00 0.16 0.02 92 1012.2
20260502064535 38 334 0.0 2.0 0.00 0.16 0.02 92 1012.1
20260502063023 39 352 0.0 3.0 0.00 0.16 0.02 92 1012.2
20260502061505 39 11 2.0 5.0 0.00 0.16 0.02 92 1012.4
20260502060018 39 278 1.0 3.0 0.00 0.16 0.02 92 1012.2
20260502054515 39 333 1.0 4.0 0.00 0.16 0.02 92 1012.3
20260502053018 39 11 2.0 9.0 0.01 0.16 0.02 92 1012.0
20260502051529 40 299 1.0 5.0 0.02 0.16 0.02 92 1012.0
20260502050006 41 28 0.0 2.0 0.02 0.16 0.02 93 1012.3
20260502044510 41 269 0.0 2.0 0.02 0.16 0.02 93 1012.3
20260502043013 41 238 0.0 2.0 0.01 0.15 0.01 93 1012.4
20260502041526 41 265 0.0 2.0 0.02 0.14 0.00 93 1012.1
20260502040023 41 267 0.0 4.0 0.02 0.14 0.00 93 1012.0
20260502034508 41 267 0.0 4.0 0.02 0.14 0.14 93 1011.9
20260502033016 42 267 1.0 6.0 0.02 0.14 0.14 93 1011.8
20260502031517 42 272 0.0 1.0 0.01 0.12 0.12 93 1012.1
20260502030021 43 288 0.0 0.0 0.02 0.12 0.12 93 1012.0
20260502024522 43 288 0.0 0.0 0.02 0.12 0.12 93 1011.9
20260502023011 43 257 0.0 0.0 0.03 0.12 0.12 93 1012.1
20260502021512 43 167 0.0 0.0 0.02 0.11 0.11 93 1012.2
20260502020017 43 167 0.0 0.0 0.02 0.10 0.10 92 1012.1
20260502014523 43 167 0.0 0.0 0.03 0.10 0.10 92 1011.9
20260502013026 43 167 0.0 0.0 0.03 0.09 0.09 92 1012.0
20260502011512 43 168 0.0 0.0 0.03 0.09 0.09 91 1011.9
20260502010027 43 163 0.0 0.0 0.03 0.08 0.08 91 1011.9